Regional Weather Roundup
Issued by NWS

Home | Current Version | Previous Version | Text Only | Print | Product List | Glossary On
Versions: 1 2 3 4 5 6 7 8 9 10 11 12 13 14 15 16 17 18 19 20 21 22 23 24 25 26 27 28 29 30 31 32 33 34 35 36 37 38 39 40 41 42 43 44 45 46 47 48 49 50
000
ASUS43 KOAX 070710
RWRNE

WEATHER ROUNDUP FOR NEBRASKA
NATIONAL WEATHER SERVICE OMAHA NE
200 AM CDT THU MAY 07 2015

NOTES: SATELLITE DATA IS BEING USED TO AUGMENT CLOUD COVER ABOVE
       12000 FEET.
       "FAIR" INDICATES FEW OR NO CLOUDS BELOW 12,000 FEET WITH NO
       SIGNIFICANT WEATHER AND/OR OBSTRUCTIONS TO VISIBILITY.

  * THESE STATIONS DO NOT REPORT WEATHER SUCH AS RAIN...SNOW OR FOG.

NEZ001>004-019>022-054>056-070800-
NEBRASKA PANHANDLE

CITY           SKY/WX    TMP DP  RH WIND       PRES   REMARKS
SCOTTSBLUFF    LGT RAIN  48  46  93 NW17      29.81R
ALLIANCE       CLOUDY    49  46  90 NW14      29.77R
CHADRON        CLOUDY    49  47  93 NW13      29.77S
KIMBALL        CLOUDY    46  43  91 NW16G24   29.82R
SIDNEY         CLOUDY    48  44  86 NW13      29.81R
$$

NEZ057>060-069>072-079>082-070800-
SOUTHWEST NEBRASKA

CITY           SKY/WX    TMP DP  RH WIND       PRES   REMARKS
NORTH PLATTE   CLEAR     52  50  93 W7        29.67R
IMPERIAL       MOCLDY    52  46  80 NW20G28   29.73R
LEXINGTON      FOG       54  53  95 CALM      29.64R VSB 1/4
MCCOOK         MOCLDY    59  54  83 NW15      29.66R
OGALLALA       CLOUDY    53  49  87 NW20G25   29.72S
$$

NEZ005>010-023>029-035>040-094-070800-
NORTH CENTRAL NEBRASKA

CITY           SKY/WX    TMP DP  RH WIND       PRES   REMARKS
VALENTINE      CLOUDY    57  56  96 W7        29.64R
AINSWORTH      CLOUDY    59  59  99 CALM      29.63R
BROKEN BOW     FOG       58  57  97 SE6       29.64S VSB 1/4
O`NEILL        CLOUDY    60  58  95 S7        29.64S
ORD            LGT RAIN  59  57  93 CALM      29.62S
THEDFORD       FOG       55  54  99 NW6       29.66R VSB 1/2
$$

NEZ041-046>049-061>064-073>077-083>087-070800-
SOUTH CENTRAL NEBRASKA

CITY           SKY/WX    TMP DP  RH WIND       PRES   REMARKS
GRAND ISLAND   CLOUDY    64  60  87 S17G25    29.65R
AURORA         CLOUDY    63  62  99 S10G21    29.67R
HASTINGS       CLOUDY    64  60  87 S15G28    29.65F
HOLDREGE       PTCLDY    61  59  92 SW13G18   29.66R
KEARNEY *      CLOUDY    63  61  94 S18       29.65R
YORK           LGT RAIN  63  61  94 S21       29.68F
$$

NEZ011>018-030>034-042>045-070800-
NORTHEAST NEBRASKA

CITY           SKY/WX    TMP DP  RH WIND       PRES   REMARKS
NORFOLK        CLOUDY    61  58  90 S21G26    29.64S
ALBION         LGT RAIN  60  57  89 SE8       29.64S
BLAIR          HVY RAIN  61  58  91 S15       29.74S
COLUMBUS *     CLOUDY    61  54  77 S17       29.70R
FREMONT        RAIN      61  59  93 S15       29.74R
TEKAMAH        RAIN      63  61  93 SE17      29.71S
WAYNE          DRIZZLE   62  59  90 S20G28    29.65S
$$

NEZ050>053-065>068-078-088>093-070800-
SOUTHEAST NEBRASKA

CITY           SKY/WX    TMP DP  RH WIND       PRES   REMARKS
LINCOLN        TSTM      59  59 100 CALM      29.77R VSB 3/4
OMAHA EPPLEY   HVY RAIN  61  59  93 SE17      29.76R FOG
BEATRICE       CLOUDY    64  61  88 SE14      29.70F
FALLS CITY     PTCLDY    68  56  65 S24G32    29.74F
NEBRASKA CITY  CLOUDY    67  55  65 S14       29.75R
PLATTSMOUTH    HVY RAIN  60  57  89 W3        29.78F
$$

NEZ044-045-051>053-067-070800-
OMAHA AREA

CITY           SKY/WX    TMP DP  RH WIND       PRES   REMARKS
OMAHA EPPLEY   HVY RAIN  61  59  93 SE17      29.76R FOG
BLAIR          HVY RAIN  61  58  91 S15       29.74S
FREMONT        RAIN      61  59  93 S15       29.74R
MILLARD        HVY RAIN  61  59  93 SE12      29.76R
OFFUTT AFB     HVY RAIN  61  59  94 S8        29.77S FOG
PLATTSMOUTH    HVY RAIN  60  57  89 W3        29.78F
WAHOO          HVY RAIN  60  58  90 SW15      29.79R
$$



USA.gov is the U.S. government's official web portal to all federal, state and local government web resources and services.